Wetterdaten: Mittwoch, 05.11.2014
Datum Zeit Temperatur Luftfeuchte Luftdruck Regen Wind Richtung Richtung Taupunkt Windchill Windben
05.11.2014 00:00 5,8 C 73 % 998,9 hPa 0,0 l/m 0,0 km/h (0 Bft) SO 135 1,3 C 7,8 C 0,0 km/h (0 Bft)
05.11.2014 00:05 6,1 C 74 % 998,9 hPa 0,0 l/m 0,0 km/h (0 Bft) SO 135 1,8 C 7,8 C 0,0 km/h (0 Bft)
05.11.2014 00:10 6,2 C 74 % 998,9 hPa 0,0 l/m 0,0 km/h (0 Bft) SO 135 1,9 C 7,8 C 0,0 km/h (0 Bft)
05.11.2014 00:15 7,6 C 70 % 998,9 hPa 0,0 l/m 0,0 km/h (0 Bft) SO 135 2,5 C 7,8 C 0,0 km/h (0 Bft)
05.11.2014 00:20 7,8 C 69 % 999,0 hPa 0,0 l/m 0,0 km/h (0 Bft) SO 135 2,5 C 7,8 C 0,0 km/h (0 Bft)
05.11.2014 00:25 7,8 C 67 % 999,0 hPa 0,0 l/m 0,0 km/h (0 Bft) SO 135 2,1 C 7,8 C 0,0 km/h (0 Bft)
05.11.2014 00:28 7,7 C 67 % 999,0 hPa 0,0 l/m 0,0 km/h (0 Bft) SO 135 2,0 C 7,8 C 0,0 km/h (0 Bft)
05.11.2014 00:35 8,0 C 68 % 999,1 hPa 0,0 l/m 0,0 km/h (0 Bft) SO 135 2,5 C 7,8 C 0,0 km/h (0 Bft)
05.11.2014 00:40 8,6 C 66 % 999,1 hPa 0,0 l/m 0,0 km/h (0 Bft) SO 135 2,6 C 7,8 C 0,0 km/h (0 Bft)
05.11.2014 00:45 8,2 C 65 % 999,1 hPa 0,0 l/m 0,0 km/h (0 Bft) SO 135 2,0 C 7,8 C 0,0 km/h (0 Bft)
05.11.2014 00:50 8,6 C 65 % 999,1 hPa 0,0 l/m 0,0 km/h (0 Bft) SO 135 2,4 C 7,8 C 0,0 km/h (0 Bft)
05.11.2014 00:55 8,1 C 65 % 998,9 hPa 0,0 l/m 0,0 km/h (0 Bft) SO 135 1,9 C 7,8 C 0,0 km/h (0 Bft)
05.11.2014 01:00 8,4 C 66 % 998,9 hPa 0,0 l/m 0,0 km/h (0 Bft) SO 135 2,4 C 7,8 C 0,0 km/h (0 Bft)
05.11.2014 01:05 6,3 C 66 % 998,9 hPa 0,0 l/m 0,0 km/h (0 Bft) SO 135 0,4 C 7,8 C 0,0 km/h (0 Bft)
05.11.2014 01:10 5,4 C 69 % 998,9 hPa 0,0 l/m 0,0 km/h (0 Bft) SO 135 0,2 C 7,8 C 0,0 km/h (0 Bft)
05.11.2014 01:15 5,4 C 69 % 998,9 hPa 0,0 l/m 0,0 km/h (0 Bft) SO 135 0,2 C 7,8 C 0,0 km/h (0 Bft)
05.11.2014 01:20 6,9 C 71 % 999,4 hPa 0,0 l/m 0,0 km/h (0 Bft) SO 135 2,0 C 7,8 C 0,0 km/h (0 Bft)
05.11.2014 01:25 7,5 C 70 % 999,4 hPa 0,0 l/m 0,0 km/h (0 Bft) SO 135 2,4 C 7,8 C 0,0 km/h (0 Bft)
05.11.2014 01:30 7,8 C 69 % 999,4 hPa 0,0 l/m 0,0 km/h (0 Bft) SO 135 2,5 C 7,8 C 0,0 km/h (0 Bft)
05.11.2014 01:35 7,9 C 67 % 999,4 hPa 0,0 l/m 0,0 km/h (0 Bft) SO 135 2,2 C 7,8 C 0,0 km/h (0 Bft)
05.11.2014 01:40 7,6 C 68 % 999,4 hPa 0,0 l/m 0,0 km/h (0 Bft) SO 135 2,1 C 7,8 C 0,0 km/h (0 Bft)
05.11.2014 01:45 7,8 C 68 % 999,4 hPa 0,0 l/m 0,0 km/h (0 Bft) SO 135 2,3 C 7,8 C 0,0 km/h (0 Bft)
05.11.2014 01:50 7,7 C 68 % 999,4 hPa 0,0 l/m 0,0 km/h (0 Bft) SO 135 2,2 C 7,8 C 0,0 km/h (0 Bft)
05.11.2014 01:55 6,5 C 68 % 999,4 hPa 0,0 l/m 0,0 km/h (0 Bft) SO 135 1,0 C 7,8 C 0,0 km/h (0 Bft)
05.11.2014 02:00 6,1 C 70 % 999,8 hPa 0,0 l/m 0,0 km/h (0 Bft) SO 135 1,0 C 7,8 C 0,0 km/h (0 Bft)
05.11.2014 02:05 6,9 C 71 % 999,8 hPa 0,0 l/m 0,0 km/h (0 Bft) SO 135 2,0 C 7,8 C 0,0 km/h (0 Bft)
05.11.2014 02:10 6,6 C 71 % 999,8 hPa 0,0 l/m 0,0 km/h (0 Bft) SO 135 1,7 C 7,8 C 0,0 km/h (0 Bft)
05.11.2014 02:15 7,5 C 70 % 999,8 hPa 0,0 l/m 0,0 km/h (0 Bft) SO 135 2,4 C 7,8 C 0,0 km/h (0 Bft)
05.11.2014 02:20 7,7 C 70 % 1000,4 hPa 0,0 l/m 0,0 km/h (0 Bft) SO 135 2,6 C 7,8 C 0,0 km/h (0 Bft)
05.11.2014 02:25 7,8 C 69 % 1000,4 hPa 0,0 l/m 0,0 km/h (0 Bft) SO 135 2,5 C 7,8 C 0,0 km/h (0 Bft)
05.11.2014 02:30 8,3 C 68 % 1000,4 hPa 0,0 l/m 0,0 km/h (0 Bft) SO 135 2,7 C 7,8 C 0,0 km/h (0 Bft)
05.11.2014 02:35 6,7 C 68 % 1000,4 hPa 0,0 l/m 0,0 km/h (0 Bft) SO 135 1,2 C 7,8 C 0,0 km/h (0 Bft)
05.11.2014 02:40 6,4 C 70 % 1000,4 hPa 0,0 l/m 0,0 km/h (0 Bft) SO 135 1,3 C 7,8 C 0,0 km/h (0 Bft)
05.11.2014 02:45 5,6 C 72 % 1000,4 hPa 0,0 l/m 0,0 km/h (0 Bft) SO 135 1,0 C 7,8 C 0,0 km/h (0 Bft)
05.11.2014 02:50 5,0 C 73 % 1000,4 hPa 0,0 l/m 0,0 km/h (0 Bft) SO 135 0,6 C 7,8 C 0,0 km/h (0 Bft)
05.11.2014 02:55 4,4 C 74 % 1000,4 hPa 0,0 l/m 0,0 km/h (0 Bft) SO 135 0,2 C 7,8 C 0,0 km/h (0 Bft)
05.11.2014 03:00 5,5 C 77 % 1000,6 hPa 0,0 l/m 0,0 km/h (0 Bft) SO 135 1,8 C 7,8 C 0,0 km/h (0 Bft)
05.11.2014 03:05 5,9 C 76 % 1000,6 hPa 0,0 l/m 0,0 km/h (0 Bft) SO 135 2,0 C 7,8 C 0,0 km/h (0 Bft)
05.11.2014 03:10 4,9 C 76 % 1000,6 hPa 0,0 l/m 0,0 km/h (0 Bft) SO 135 1,0 C 7,8 C 0,0 km/h (0 Bft)
05.11.2014 03:15 4,6 C 77 % 1000,6 hPa 0,0 l/m 0,0 km/h (0 Bft) SO 135 0,9 C 7,8 C 0,0 km/h (0 Bft)
05.11.2014 03:20 5,4 C 78 % 1000,4 hPa 0,0 l/m 0,0 km/h (0 Bft) SO 135 1,9 C 7,8 C 0,0 km/h (0 Bft)
05.11.2014 03:23 4,6 C 79 % 1000,4 hPa 0,0 l/m 0,0 km/h (0 Bft) SO 135 1,3 C 7,8 C 0,0 km/h (0 Bft)
05.11.2014 03:25 4,8 C 79 % 1000,4 hPa 0,0 l/m 0,0 km/h (0 Bft) SO 135 1,5 C 7,8 C 0,0 km/h (0 Bft)
05.11.2014 03:30 4,7 C 79 % 1000,4 hPa 0,0 l/m 0,0 km/h (0 Bft) SO 135 1,4 C 7,8 C 0,0 km/h (0 Bft)
05.11.2014 03:35 4,3 C 79 % 1000,4 hPa 0,0 l/m 0,0 km/h (0 Bft) SO 135 1,0 C 7,8 C 0,0 km/h (0 Bft)
05.11.2014 03:40 4,1 C 80 % 1000,4 hPa 0,0 l/m 0,0 km/h (0 Bft) SO 135 1,0 C 7,8 C 0,0 km/h (0 Bft)
05.11.2014 03:45 5,2 C 82 % 1000,4 hPa 0,0 l/m 0,0 km/h (0 Bft) SO 135 2,4 C 7,8 C 0,0 km/h (0 Bft)
05.11.2014 03:50 4,3 C 80 % 1000,4 hPa 0,0 l/m 0,0 km/h (0 Bft) SO 135 1,2 C 7,8 C 0,0 km/h (0 Bft)
05.11.2014 03:55 3,9 C 80 % 1000,5 hPa 0,0 l/m 0,0 km/h (0 Bft) SO 135 0,8 C 7,8 C 0,0 km/h (0 Bft)
05.11.2014 04:00 4,8 C 81 % 1000,5 hPa 0,0 l/m 0,0 km/h (0 Bft) SO 135 1,8 C 7,8 C 0,0 km/h (0 Bft)
05.11.2014 04:05 4,5 C 80 % 1000,5 hPa 0,0 l/m 0,0 km/h (0 Bft) SO 135 1,4 C 7,8 C 0,0 km/h (0 Bft)
05.11.2014 04:10 5,0 C 82 % 1000,5 hPa 0,0 l/m 0,0 km/h (0 Bft) SO 135 2,2 C 7,8 C 0,0 km/h (0 Bft)
05.11.2014 04:15 4,3 C 81 % 1000,8 hPa 0,0 l/m 0,0 km/h (0 Bft) SO 135 1,3 C 7,8 C 0,0 km/h (0 Bft)
05.11.2014 04:20 4,3 C 81 % 1000,8 hPa 0,0 l/m 0,0 km/h (0 Bft) SO 135 1,3 C 7,8 C 0,0 km/h (0 Bft)
05.11.2014 04:25 3,3 C 80 % 1000,8 hPa 0,0 l/m 0,0 km/h (0 Bft) SO 135 0,2 C 7,8 C 0,0 km/h (0 Bft)
05.11.2014 04:30 3,7 C 82 % 1000,8 hPa 0,0 l/m 0,0 km/h (0 Bft) SO 135 0,9 C 7,8 C 0,0 km/h (0 Bft)
05.11.2014 04:35 5,6 C 84 % 1000,8 hPa 0,0 l/m 0,0 km/h (0 Bft) SO 135 3,1 C 7,8 C 0,0 km/h (0 Bft)
05.11.2014 04:40 4,2 C 81 % 1000,8 hPa 0,0 l/m 0,0 km/h (0 Bft) SO 135 1,2 C 7,8 C 0,0 km/h (0 Bft)
05.11.2014 04:45 3,4 C 81 % 1000,8 hPa 0,0 l/m 0,0 km/h (0 Bft) SO 135 0,5 C 7,8 C 0,0 km/h (0 Bft)
05.11.2014 04:50 4,2 C 83 % 1000,8 hPa 0,0 l/m 0,0 km/h (0 Bft) SO 135 1,6 C 7,8 C 0,0 km/h (0 Bft)
05.11.2014 04:55 4,6 C 84 % 1000,8 hPa 0,0 l/m 0,0 km/h (0 Bft) SO 135 2,1 C 7,8 C 0,0 km/h (0 Bft)
05.11.2014 05:00 5,1 C 85 % 1001,8 hPa 0,0 l/m 0,0 km/h (0 Bft) SO 135 2,8 C 7,8 C 0,0 km/h (0 Bft)
05.11.2014 05:05 4,9 C 86 % 1001,8 hPa 0,0 l/m 0,0 km/h (0 Bft) SO 135 2,8 C 7,8 C 0,0 km/h (0 Bft)
05.11.2014 05:10 5,0 C 85 % 1001,8 hPa 0,0 l/m 0,0 km/h (0 Bft) SO 135 2,7 C 7,8 C 0,0 km/h (0 Bft)
05.11.2014 05:15 5,7 C 87 % 1001,8 hPa 0,0 l/m 0,0 km/h (0 Bft) SO 135 3,7 C 7,8 C 0,0 km/h (0 Bft)
05.11.2014 05:20 6,0 C 86 % 1002,2 hPa 0,0 l/m 0,0 km/h (0 Bft) SO 135 3,8 C 7,8 C 0,0 km/h (0 Bft)
05.11.2014 05:25 6,4 C 87 % 1002,2 hPa 0,0 l/m 0,0 km/h (0 Bft) SO 135 4,4 C 7,8 C 0,0 km/h (0 Bft)
05.11.2014 05:30 6,6 C 87 % 1002,2 hPa 0,0 l/m 0,0 km/h (0 Bft) SO 135 4,6 C 7,8 C 0,0 km/h (0 Bft)
05.11.2014 05:35 6,8 C 87 % 1002,2 hPa 0,0 l/m 0,0 km/h (0 Bft) SO 135 4,8 C 7,8 C 0,0 km/h (0 Bft)
05.11.2014 05:40 6,8 C 87 % 1002,8 hPa 0,0 l/m 0,0 km/h (0 Bft) SO 135 4,8 C 7,8 C 0,0 km/h (0 Bft)
05.11.2014 05:45 6,9 C 87 % 1002,8 hPa 0,0 l/m 0,0 km/h (0 Bft) SO 135 4,9 C 7,8 C 0,0 km/h (0 Bft)
05.11.2014 05:50 6,8 C 87 % 1002,8 hPa 0,0 l/m 0,0 km/h (0 Bft) SO 135 4,8 C 7,8 C 0,0 km/h (0 Bft)
05.11.2014 05:55 6,7 C 86 % 1002,8 hPa 0,0 l/m 0,0 km/h (0 Bft) SO 135 4,5 C 7,8 C 0,0 km/h (0 Bft)
05.11.2014 06:00 6,7 C 86 % 1002,8 hPa 0,0 l/m 0,0 km/h (0 Bft) SO 135 4,5 C 7,8 C 0,0 km/h (0 Bft)
05.11.2014 06:05 6,6 C 86 % 1002,8 hPa 0,0 l/m 0,0 km/h (0 Bft) SO 135 4,4 C 7,8 C 0,0 km/h (0 Bft)
05.11.2014 06:10 6,6 C 85 % 1002,8 hPa 0,0 l/m 0,0 km/h (0 Bft) SO 135 4,3 C 7,8 C 0,0 km/h (0 Bft)
05.11.2014 06:15 6,7 C 86 % 1002,8 hPa 0,0 l/m 0,0 km/h (0 Bft) SO 135 4,5 C 7,8 C 0,0 km/h (0 Bft)
05.11.2014 06:20 6,7 C 86 % 1002,7 hPa 0,0 l/m 0,0 km/h (0 Bft) SO 135 4,5 C 7,8 C 0,0 km/h (0 Bft)
05.11.2014 06:23 6,7 C 86 % 1002,7 hPa 0,0 l/m 0,0 km/h (0 Bft) SO 135 4,5 C 7,8 C 0,0 km/h (0 Bft)
05.11.2014 06:30 6,7 C 86 % 1002,7 hPa 0,0 l/m 0,0 km/h (0 Bft) SO 135 4,5 C 7,8 C 0,0 km/h (0 Bft)
05.11.2014 06:35 6,8 C 85 % 1003,0 hPa 0,0 l/m 0,0 km/h (0 Bft) SO 135 4,5 C 7,8 C 0,0 km/h (0 Bft)
05.11.2014 06:40 6,8 C 85 % 1003,0 hPa 0,0 l/m 0,0 km/h (0 Bft) SO 135 4,5 C 7,8 C 0,0 km/h (0 Bft)
05.11.2014 06:45 6,9 C 86 % 1003,0 hPa 0,0 l/m 0,0 km/h (0 Bft) SO 135 4,7 C 7,8 C 0,0 km/h (0 Bft)
05.11.2014 06:50 6,9 C 86 % 1003,0 hPa 0,0 l/m 0,0 km/h (0 Bft) SO 135 4,7 C 7,8 C 0,0 km/h (0 Bft)
05.11.2014 06:55 6,9 C 85 % 1003,3 hPa 0,0 l/m 0,0 km/h (0 Bft) SO 135 4,6 C 7,8 C 0,0 km/h (0 Bft)
05.11.2014 07:00 6,9 C 85 % 1003,3 hPa 0,0 l/m 0,0 km/h (0 Bft) SO 135 4,6 C 7,8 C 0,0 km/h (0 Bft)
05.11.2014 07:05 6,9 C 85 % 1003,3 hPa 0,0 l/m 0,0 km/h (0 Bft) SO 135 4,6 C 7,8 C 0,0 km/h (0 Bft)
05.11.2014 07:10 6,8 C 85 % 1003,3 hPa 0,0 l/m 0,0 km/h (0 Bft) SO 135 4,5 C 7,8 C 0,0 km/h (0 Bft)
05.11.2014 07:15 6,9 C 85 % 1003,8 hPa 0,0 l/m 0,0 km/h (0 Bft) SO 135 4,6 C 7,8 C 0,0 km/h (0 Bft)
05.11.2014 07:20 6,9 C 85 % 1003,8 hPa 0,0 l/m 0,0 km/h (0 Bft) SO 135 4,6 C 7,8 C 0,0 km/h (0 Bft)
05.11.2014 07:25 6,9 C 86 % 1003,8 hPa 0,0 l/m 0,0 km/h (0 Bft) SO 135 4,7 C 7,8 C 0,0 km/h (0 Bft)
05.11.2014 07:30 6,9 C 86 % 1003,8 hPa 0,0 l/m 0,0 km/h (0 Bft) SO 135 4,7 C 7,8 C 0,0 km/h (0 Bft)
05.11.2014 07:35 6,9 C 86 % 1003,8 hPa 0,0 l/m 0,0 km/h (0 Bft) SO 135 4,7 C 7,8 C 0,0 km/h (0 Bft)
05.11.2014 07:40 6,9 C 86 % 1003,8 hPa 0,0 l/m 0,0 km/h (0 Bft) SO 135 4,7 C 7,8 C 0,0 km/h (0 Bft)
05.11.2014 07:45 6,9 C 86 % 1003,8 hPa 0,0 l/m 0,0 km/h (0 Bft) SO 135 4,7 C 7,8 C 0,0 km/h (0 Bft)
05.11.2014 07:50 6,9 C 86 % 1003,8 hPa 0,0 l/m 0,0 km/h (0 Bft) SO 135 4,7 C 7,8 C 0,0 km/h (0 Bft)
05.11.2014 07:55 6,9 C 86 % 1003,8 hPa 0,0 l/m 0,0 km/h (0 Bft) SO 135 4,7 C 7,8 C 0,0 km/h (0 Bft)
05.11.2014 08:00 6,9 C 86 % 1004,5 hPa 0,0 l/m 0,0 km/h (0 Bft) SO 135 4,7 C 7,8 C 0,0 km/h (0 Bft)
05.11.2014 08:05 6,8 C 86 % 1004,5 hPa 0,0 l/m 0,0 km/h (0 Bft) SO 135 4,6 C 7,8 C 0,0 km/h (0 Bft)
05.11.2014 08:10 6,8 C 87 % 1004,5 hPa 0,0 l/m 0,0 km/h (0 Bft) SO 135 4,8 C 7,8 C 0,0 km/h (0 Bft)
05.11.2014 08:15 6,8 C 87 % 1004,5 hPa 0,0 l/m 0,0 km/h (0 Bft) SO 135 4,8 C 7,8 C 0,0 km/h (0 Bft)
05.11.2014 08:20 6,7 C 87 % 1004,5 hPa 0,0 l/m 0,0 km/h (0 Bft) SO 135 4,7 C 7,8 C 0,0 km/h (0 Bft)
05.11.2014 08:25 6,7 C 87 % 1004,5 hPa 0,0 l/m 0,0 km/h (0 Bft) SO 135 4,7 C 7,8 C 0,0 km/h (0 Bft)
05.11.2014 08:30 6,6 C 88 % 1004,5 hPa 0,0 l/m 0,0 km/h (0 Bft) SO 135 4,8 C 7,8 C 0,0 km/h (0 Bft)
05.11.2014 08:35 6,4 C 88 % 1004,5 hPa 0,0 l/m 0,0 km/h (0 Bft) SO 135 4,6 C 7,8 C 0,0 km/h (0 Bft)
05.11.2014 08:40 6,4 C 88 % 1004,6 hPa 0,0 l/m 0,0 km/h (0 Bft) SO 135 4,6 C 7,8 C 0,0 km/h (0 Bft)
05.11.2014 08:45 6,3 C 88 % 1004,6 hPa 0,0 l/m 0,0 km/h (0 Bft) SO 135 4,5 C 7,8 C 0,0 km/h (0 Bft)
05.11.2014 08:50 6,4 C 88 % 1004,6 hPa 0,0 l/m 0,0 km/h (0 Bft) SO 135 4,6 C 7,8 C 0,0 km/h (0 Bft)
05.11.2014 08:55 6,5 C 88 % 1004,6 hPa 0,0 l/m 0,0 km/h (0 Bft) SO 135 4,7 C 7,8 C 0,0 km/h (0 Bft)
05.11.2014 09:00 6,5 C 88 % 1004,8 hPa 0,0 l/m 0,0 km/h (0 Bft) SO 135 4,7 C 7,8 C 0,0 km/h (0 Bft)
05.11.2014 09:05 6,6 C 89 % 1004,8 hPa 0,0 l/m 0,0 km/h (0 Bft) SO 135 4,9 C 7,8 C 0,0 km/h (0 Bft)
05.11.2014 09:10 6,5 C 89 % 1004,8 hPa 0,0 l/m 0,0 km/h (0 Bft) SO 135 4,8 C 7,8 C 0,0 km/h (0 Bft)
05.11.2014 09:15 6,5 C 90 % 1004,8 hPa 0,0 l/m 0,0 km/h (0 Bft) SO 135 5,0 C 7,8 C 0,0 km/h (0 Bft)
05.11.2014 09:20 6,5 C 90 % 1004,9 hPa 0,0 l/m 0,0 km/h (0 Bft) SO 135 5,0 C 7,8 C 0,0 km/h (0 Bft)
05.11.2014 09:23 6,6 C 90 % 1004,9 hPa 0,0 l/m 0,0 km/h (0 Bft) SO 135 5,1 C 7,8 C 0,0 km/h (0 Bft)
05.11.2014 09:25 6,5 C 90 % 1004,9 hPa 0,0 l/m 0,0 km/h (0 Bft) SO 135 5,0 C 7,8 C 0,0 km/h (0 Bft)
05.11.2014 09:30 6,6 C 90 % 1004,9 hPa 0,0 l/m 0,0 km/h (0 Bft) SO 135 5,1 C 7,8 C 0,0 km/h (0 Bft)
05.11.2014 09:35 6,6 C 91 % 1004,9 hPa 0,0 l/m 0,0 km/h (0 Bft) SO 135 5,2 C 7,8 C 0,0 km/h (0 Bft)
05.11.2014 09:40 6,6 C 91 % 1004,9 hPa 0,0 l/m 0,0 km/h (0 Bft) SO 135 5,2 C 7,8 C 0,0 km/h (0 Bft)
05.11.2014 09:45 6,6 C 91 % 1004,9 hPa 0,0 l/m 0,0 km/h (0 Bft) SO 135 5,2 C 7,8 C 0,0 km/h (0 Bft)
05.11.2014 09:50 6,7 C 91 % 1004,9 hPa 0,0 l/m 0,0 km/h (0 Bft) SO 135 5,3 C 7,8 C 0,0 km/h (0 Bft)
05.11.2014 09:55 6,7 C 91 % 1004,8 hPa 0,0 l/m 0,0 km/h (0 Bft) SO 135 5,3 C 7,8 C 0,0 km/h (0 Bft)
05.11.2014 10:00 6,8 C 92 % 1004,8 hPa 0,0 l/m 0,0 km/h (0 Bft) SO 135 5,6 C 7,8 C 0,0 km/h (0 Bft)
05.11.2014 10:05 6,8 C 92 % 1004,8 hPa 0,0 l/m 0,0 km/h (0 Bft) SO 135 5,6 C 7,8 C 0,0 km/h (0 Bft)
05.11.2014 10:10 6,8 C 92 % 1004,8 hPa 0,0 l/m 0,0 km/h (0 Bft) SO 135 5,6 C 7,8 C 0,0 km/h (0 Bft)
05.11.2014 10:15 6,8 C 92 % 1004,8 hPa 0,0 l/m 0,0 km/h (0 Bft) SO 135 5,6 C 7,8 C 0,0 km/h (0 Bft)
05.11.2014 10:20 6,8 C 92 % 1005,0 hPa 0,0 l/m 0,0 km/h (0 Bft) SO 135 5,6 C 7,8 C 0,0 km/h (0 Bft)
05.11.2014 10:25 6,9 C 92 % 1005,0 hPa 0,0 l/m 0,0 km/h (0 Bft) SO 135 5,7 C 7,8 C 0,0 km/h (0 Bft)
05.11.2014 10:30 6,9 C 92 % 1005,0 hPa 0,0 l/m 0,0 km/h (0 Bft) SO 135 5,7 C 7,8 C 0,0 km/h (0 Bft)
05.11.2014 10:35 6,9 C 92 % 1005,0 hPa 0,0 l/m 0,0 km/h (0 Bft) SO 135 5,7 C 7,8 C 0,0 km/h (0 Bft)
05.11.2014 10:40 7,0 C 92 % 1005,1 hPa 0,0 l/m 0,0 km/h (0 Bft) SO 135 5,8 C 7,8 C 0,0 km/h (0 Bft)
05.11.2014 10:45 6,9 C 92 % 1005,1 hPa 0,0 l/m 0,0 km/h (0 Bft) SO 135 5,7 C 7,8 C 0,0 km/h (0 Bft)
05.11.2014 10:50 7,0 C 92 % 1005,1 hPa 0,0 l/m 0,0 km/h (0 Bft) SO 135 5,8 C 7,8 C 0,0 km/h (0 Bft)
05.11.2014 10:55 7,1 C 92 % 1005,1 hPa 0,0 l/m 0,0 km/h (0 Bft) SO 135 5,9 C 7,8 C 0,0 km/h (0 Bft)
05.11.2014 11:00 7,2 C 92 % 1005,4 hPa 0,0 l/m 0,0 km/h (0 Bft) SO 135 6,0 C 7,8 C 0,0 km/h (0 Bft)
05.11.2014 11:05 7,2 C 92 % 1005,4 hPa 0,0 l/m 0,0 km/h (0 Bft) SO 135 6,0 C 7,8 C 0,0 km/h (0 Bft)
05.11.2014 11:10 7,2 C 92 % 1005,4 hPa 0,0 l/m 0,0 km/h (0 Bft) SO 135 6,0 C 7,8 C 0,0 km/h (0 Bft)
05.11.2014 11:15 7,2 C 91 % 1005,4 hPa 0,0 l/m 0,0 km/h (0 Bft) SO 135 5,8 C 7,8 C 0,0 km/h (0 Bft)
05.11.2014 11:20 7,2 C 91 % 1005,4 hPa 0,0 l/m 0,0 km/h (0 Bft) SO 135 5,8 C 7,8 C 0,0 km/h (0 Bft)
05.11.2014 11:25 7,3 C 91 % 1005,4 hPa 0,0 l/m 0,0 km/h (0 Bft) SO 135 5,9 C 7,8 C 0,0 km/h (0 Bft)
05.11.2014 11:30 7,4 C 91 % 1005,4 hPa 0,0 l/m 0,0 km/h (0 Bft) SO 135 6,0 C 7,8 C 0,0 km/h (0 Bft)
05.11.2014 11:35 7,5 C 91 % 1005,4 hPa 0,0 l/m 0,0 km/h (0 Bft) SO 135 6,1 C 7,8 C 0,0 km/h (0 Bft)
05.11.2014 11:40 7,4 C 91 % 1005,5 hPa 0,0 l/m 0,0 km/h (0 Bft) SO 135 6,0 C 7,8 C 0,0 km/h (0 Bft)
05.11.2014 11:45 7,4 C 91 % 1005,5 hPa 0,0 l/m 0,0 km/h (0 Bft) SO 135 6,0 C 7,8 C 0,0 km/h (0 Bft)
05.11.2014 11:50 7,6 C 91 % 1005,5 hPa 0,0 l/m 0,0 km/h (0 Bft) SO 135 6,2 C 7,8 C 0,0 km/h (0 Bft)
05.11.2014 11:55 7,7 C 91 % 1005,5 hPa 0,0 l/m 0,0 km/h (0 Bft) SO 135 6,3 C 7,8 C 0,0 km/h (0 Bft)
05.11.2014 12:00 7,6 C 91 % 1005,4 hPa 0,0 l/m 0,0 km/h (0 Bft) SO 135 6,2 C 7,8 C 0,0 km/h (0 Bft)
05.11.2014 12:05 7,6 C 91 % 1005,4 hPa 0,0 l/m 0,0 km/h (0 Bft) SO 135 6,2 C 7,8 C 0,0 km/h (0 Bft)
05.11.2014 12:10 7,6 C 91 % 1005,4 hPa 0,0 l/m 0,0 km/h (0 Bft) SO 135 6,2 C 7,8 C 0,0 km/h (0 Bft)
05.11.2014 12:15 7,5 C 91 % 1005,4 hPa 0,0 l/m 0,0 km/h (0 Bft) SO 135 6,1 C 7,8 C 0,0 km/h (0 Bft)
05.11.2014 12:20 7,4 C 91 % 1005,4 hPa 0,0 l/m 0,0 km/h (0 Bft) SO 135 6,0 C 7,8 C 0,0 km/h (0 Bft)
05.11.2014 12:23 7,2 C 91 % 1005,4 hPa 0,0 l/m 0,0 km/h (0 Bft) SO 135 5,8 C 7,8 C 0,0 km/h (0 Bft)
05.11.2014 12:30 7,1 C 91 % 1005,4 hPa 0,0 l/m 0,0 km/h (0 Bft) SO 135 5,7 C 7,8 C 0,0 km/h (0 Bft)
05.11.2014 12:35 7,1 C 90 % 1005,2 hPa 0,0 l/m 0,0 km/h (0 Bft) SO 135 5,6 C 7,8 C 0,0 km/h (0 Bft)
05.11.2014 12:40 7,2 C 90 % 1005,2 hPa 0,0 l/m 0,0 km/h (0 Bft) SO 135 5,7 C 7,8 C 0,0 km/h (0 Bft)
05.11.2014 12:45 7,2 C 91 % 1005,2 hPa 0,0 l/m 0,0 km/h (0 Bft) SO 135 5,8 C 7,8 C 0,0 km/h (0 Bft)
05.11.2014 12:50 7,2 C 91 % 1005,2 hPa 0,0 l/m 0,0 km/h (0 Bft) SO 135 5,8 C 7,8 C 0,0 km/h (0 Bft)
05.11.2014 12:55 7,2 C 91 % 1005,3 hPa 0,0 l/m 0,0 km/h (0 Bft) SO 135 5,8 C 7,8 C 0,0 km/h (0 Bft)
05.11.2014 13:00 7,0 C 91 % 1005,3 hPa 0,0 l/m 0,0 km/h (0 Bft) SO 135 5,6 C 7,8 C 0,0 km/h (0 Bft)
05.11.2014 13:05 7,0 C 91 % 1005,3 hPa 0,0 l/m 0,0 km/h (0 Bft) SO 135 5,6 C 7,8 C 0,0 km/h (0 Bft)
05.11.2014 13:10 7,0 C 91 % 1005,3 hPa 0,0 l/m 0,0 km/h (0 Bft) SO 135 5,6 C 7,8 C 0,0 km/h (0 Bft)
05.11.2014 13:15 7,0 C 91 % 1005,3 hPa 0,0 l/m 0,0 km/h (0 Bft) SO 135 5,6 C 7,8 C 0,0 km/h (0 Bft)
05.11.2014 13:20 7,0 C 91 % 1005,2 hPa 0,0 l/m 0,0 km/h (0 Bft) SO 135 5,6 C 7,8 C 0,0 km/h (0 Bft)
05.11.2014 13:25 7,0 C 91 % 1005,2 hPa 0,0 l/m 0,0 km/h (0 Bft) SO 135 5,6 C 7,8 C 0,0 km/h (0 Bft)
05.11.2014 13:30 7,0 C 91 % 1005,2 hPa 0,0 l/m 0,0 km/h (0 Bft) SO 135 5,6 C 7,8 C 0,0 km/h (0 Bft)
05.11.2014 13:35 7,0 C 91 % 1005,2 hPa 0,0 l/m 0,0 km/h (0 Bft) SO 135 5,6 C 7,8 C 0,0 km/h (0 Bft)
05.11.2014 13:40 6,9 C 92 % 1005,0 hPa 0,0 l/m 0,0 km/h (0 Bft) SO 135 5,7 C 7,8 C 0,0 km/h (0 Bft)
05.11.2014 13:45 6,9 C 92 % 1005,0 hPa 0,0 l/m 0,0 km/h (0 Bft) SO 135 5,7 C 7,8 C 0,0 km/h (0 Bft)
05.11.2014 13:50 7,0 C 92 % 1005,0 hPa 0,0 l/m 0,0 km/h (0 Bft) SO 135 5,8 C 7,8 C 0,0 km/h (0 Bft)
05.11.2014 13:55 7,0 C 92 % 1005,0 hPa 0,0 l/m 0,0 km/h (0 Bft) SO 135 5,8 C 7,8 C 0,0 km/h (0 Bft)
05.11.2014 14:00 6,9 C 92 % 1005,6 hPa 0,0 l/m 0,0 km/h (0 Bft) SO 135 5,7 C 7,8 C 0,0 km/h (0 Bft)
05.11.2014 14:05 6,9 C 92 % 1005,6 hPa 0,0 l/m 0,0 km/h (0 Bft) SO 135 5,7 C 7,8 C 0,0 km/h (0 Bft)
05.11.2014 14:10 6,9 C 92 % 1005,6 hPa 0,0 l/m 0,0 km/h (0 Bft) SO 135 5,7 C 7,8 C 0,0 km/h (0 Bft)
05.11.2014 14:15 6,8 C 92 % 1005,6 hPa 0,0 l/m 0,0 km/h (0 Bft) SO 135 5,6 C 7,8 C 0,0 km/h (0 Bft)
05.11.2014 14:20 6,8 C 92 % 1005,4 hPa 0,0 l/m 0,0 km/h (0 Bft) SO 135 5,6 C 7,8 C 0,0 km/h (0 Bft)
05.11.2014 14:25 6,7 C 93 % 1005,4 hPa 0,0 l/m 0,0 km/h (0 Bft) SO 135 5,6 C 7,8 C 0,0 km/h (0 Bft)
05.11.2014 14:30 6,7 C 93 % 1005,4 hPa 0,0 l/m 0,0 km/h (0 Bft) SO 135 5,6 C 7,8 C 0,0 km/h (0 Bft)
05.11.2014 14:35 6,6 C 93 % 1005,4 hPa 0,0 l/m 0,0 km/h (0 Bft) SO 135 5,6 C 7,8 C 0,0 km/h (0 Bft)
05.11.2014 14:40 6,6 C 93 % 1005,8 hPa 0,0 l/m 0,0 km/h (0 Bft) SO 135 5,6 C 7,8 C 0,0 km/h (0 Bft)
05.11.2014 14:45 6,5 C 93 % 1005,8 hPa 0,0 l/m 0,0 km/h (0 Bft) SO 135 5,5 C 7,8 C 0,0 km/h (0 Bft)
05.11.2014 14:50 6,5 C 93 % 1005,8 hPa 0,0 l/m 0,0 km/h (0 Bft) SO 135 5,5 C 7,8 C 0,0 km/h (0 Bft)
05.11.2014 14:55 6,5 C 93 % 1005,8 hPa 0,0 l/m 0,0 km/h (0 Bft) SO 135 5,5 C 7,8 C 0,0 km/h (0 Bft)
05.11.2014 15:00 6,4 C 93 % 1005,9 hPa 0,0 l/m 0,0 km/h (0 Bft) SO 135 5,4 C 7,8 C 0,0 km/h (0 Bft)
05.11.2014 15:05 6,4 C 93 % 1005,9 hPa 0,0 l/m 0,0 km/h (0 Bft) SO 135 5,4 C 7,8 C 0,0 km/h (0 Bft)
05.11.2014 15:10 6,3 C 93 % 1005,9 hPa 0,0 l/m 0,0 km/h (0 Bft) SO 135 5,3 C 7,8 C 0,0 km/h (0 Bft)
05.11.2014 15:15 6,3 C 93 % 1005,9 hPa 0,0 l/m 0,0 km/h (0 Bft) SO 135 5,3 C 7,8 C 0,0 km/h (0 Bft)
05.11.2014 15:20 6,3 C 93 % 1005,9 hPa 0,0 l/m 0,0 km/h (0 Bft) SO 135 5,3 C 7,8 C 0,0 km/h (0 Bft)
05.11.2014 15:25 6,3 C 93 % 1005,9 hPa 0,0 l/m 0,0 km/h (0 Bft) SO 135 5,3 C 7,8 C 0,0 km/h (0 Bft)
05.11.2014 15:30 6,3 C 93 % 1005,9 hPa 0,0 l/m 0,0 km/h (0 Bft) SO 135 5,3 C 7,8 C 0,0 km/h (0 Bft)
05.11.2014 15:35 6,3 C 93 % 1005,9 hPa 0,0 l/m 0,0 km/h (0 Bft) SO 135 5,3 C 7,8 C 0,0 km/h (0 Bft)
05.11.2014 15:40 6,3 C 93 % 1005,9 hPa 0,0 l/m 0,0 km/h (0 Bft) SO 135 5,3 C 7,8 C 0,0 km/h (0 Bft)
05.11.2014 15:45 6,2 C 93 % 1005,9 hPa 0,0 l/m 0,0 km/h (0 Bft) SO 135 5,2 C 7,8 C 0,0 km/h (0 Bft)
05.11.2014 15:50 6,2 C 94 % 1005,9 hPa 0,0 l/m 0,0 km/h (0 Bft) SO 135 5,3 C 7,8 C 0,0 km/h (0 Bft)
05.11.2014 15:55 6,2 C 94 % 1006,1 hPa 0,0 l/m 0,0 km/h (0 Bft) SO 135 5,3 C 7,8 C 0,0 km/h (0 Bft)
05.11.2014 16:00 6,1 C 94 % 1006,1 hPa 0,0 l/m 0,0 km/h (0 Bft) SO 135 5,2 C 7,8 C 0,0 km/h (0 Bft)
05.11.2014 16:05 6,1 C 94 % 1006,1 hPa 0,0 l/m 0,0 km/h (0 Bft) SO 135 5,2 C 7,8 C 0,0 km/h (0 Bft)
05.11.2014 16:10 6,1 C 94 % 1006,1 hPa 0,0 l/m 0,0 km/h (0 Bft) SO 135 5,2 C 7,8 C 0,0 km/h (0 Bft)
05.11.2014 16:15 6,1 C 94 % 1006,1 hPa 0,0 l/m 0,0 km/h (0 Bft) SO 135 5,2 C 7,8 C 0,0 km/h (0 Bft)
05.11.2014 16:20 6,1 C 94 % 1006,2 hPa 0,0 l/m 0,0 km/h (0 Bft) SO 135 5,2 C 7,8 C 0,0 km/h (0 Bft)
05.11.2014 16:25 6,1 C 94 % 1006,2 hPa 0,0 l/m 0,0 km/h (0 Bft) SO 135 5,2 C 7,8 C 0,0 km/h (0 Bft)
05.11.2014 16:30 6,1 C 94 % 1006,2 hPa 0,0 l/m 0,0 km/h (0 Bft) SO 135 5,2 C 7,8 C 0,0 km/h (0 Bft)
05.11.2014 16:35 6,0 C 94 % 1006,2 hPa 0,0 l/m 0,0 km/h (0 Bft) SO 135 5,1 C 7,8 C 0,0 km/h (0 Bft)
05.11.2014 16:40 6,0 C 94 % 1006,4 hPa 0,0 l/m 0,0 km/h (0 Bft) SO 135 5,1 C 7,8 C 0,0 km/h (0 Bft)
05.11.2014 16:45 6,0 C 94 % 1006,4 hPa 0,0 l/m 0,0 km/h (0 Bft) SO 135 5,1 C 7,8 C 0,0 km/h (0 Bft)
05.11.2014 16:50 6,0 C 94 % 1006,4 hPa 0,0 l/m 0,0 km/h (0 Bft) SO 135 5,1 C 7,8 C 0,0 km/h (0 Bft)
05.11.2014 16:55 6,0 C 94 % 1006,4 hPa 0,0 l/m 0,0 km/h (0 Bft) SO 135 5,1 C 7,8 C 0,0 km/h (0 Bft)
05.11.2014 17:00 6,0 C 94 % 1006,7 hPa 0,0 l/m 0,0 km/h (0 Bft) SO 135 5,1 C 7,8 C 0,0 km/h (0 Bft)
05.11.2014 17:05 6,0 C 94 % 1006,7 hPa 0,0 l/m 0,0 km/h (0 Bft) SO 135 5,1 C 7,8 C 0,0 km/h (0 Bft)
05.11.2014 17:10 6,0 C 94 % 1006,7 hPa 0,0 l/m 0,0 km/h (0 Bft) SO 135 5,1 C 7,8 C 0,0 km/h (0 Bft)
05.11.2014 17:15 5,9 C 95 % 1006,7 hPa 0,0 l/m 0,0 km/h (0 Bft) SO 135 5,2 C 7,8 C 0,0 km/h (0 Bft)
05.11.2014 17:20 5,9 C 95 % 1007,1 hPa 0,0 l/m 0,0 km/h (0 Bft) SO 135 5,2 C 7,8 C 0,0 km/h (0 Bft)
05.11.2014 17:25 5,8 C 95 % 1007,1 hPa 0,0 l/m 0,0 km/h (0 Bft) SO 135 5,1 C 7,8 C 0,0 km/h (0 Bft)
05.11.2014 17:30 5,7 C 95 % 1007,1 hPa 0,0 l/m 0,0 km/h (0 Bft) SO 135 5,0 C 7,8 C 0,0 km/h (0 Bft)
05.11.2014 17:35 5,7 C 95 % 1007,1 hPa 0,0 l/m 0,0 km/h (0 Bft) SO 135 5,0 C 7,8 C 0,0 km/h (0 Bft)
05.11.2014 17:40 5,7 C 95 % 1007,4 hPa 0,0 l/m 0,0 km/h (0 Bft) SO 135 5,0 C 7,8 C 0,0 km/h (0 Bft)
05.11.2014 17:45 5,6 C 95 % 1007,4 hPa 0,0 l/m 0,0 km/h (0 Bft) SO 135 4,9 C 7,8 C 0,0 km/h (0 Bft)
05.11.2014 17:50 5,6 C 95 % 1007,4 hPa 0,0 l/m 0,0 km/h (0 Bft) SO 135 4,9 C 7,8 C 0,0 km/h (0 Bft)
05.11.2014 17:55 5,6 C 95 % 1007,4 hPa 0,0 l/m 0,0 km/h (0 Bft) SO 135 4,9 C 7,8 C 0,0 km/h (0 Bft)
05.11.2014 18:00 5,5 C 95 % 1007,8 hPa 0,0 l/m 0,0 km/h (0 Bft) SO 135 4,8 C 7,8 C 0,0 km/h (0 Bft)
05.11.2014 18:05 5,4 C 95 % 1007,8 hPa 0,0 l/m 0,0 km/h (0 Bft) SO 135 4,7 C 7,8 C 0,0 km/h (0 Bft)
05.11.2014 18:10 5,3 C 95 % 1007,8 hPa 0,0 l/m 0,0 km/h (0 Bft) SO 135 4,6 C 7,8 C 0,0 km/h (0 Bft)
05.11.2014 18:15 5,3 C 95 % 1007,8 hPa 0,0 l/m 0,0 km/h (0 Bft) SO 135 4,6 C 7,8 C 0,0 km/h (0 Bft)
05.11.2014 18:18 4,6 C 95 % 1008,2 hPa 0,0 l/m 0,0 km/h (0 Bft) SO 135 3,9 C 7,8 C 0,0 km/h (0 Bft)
05.11.2014 18:20 4,2 C 95 % 1008,2 hPa 0,0 l/m 0,0 km/h (0 Bft) SO 135 3,5 C 7,8 C 0,0 km/h (0 Bft)
05.11.2014 18:25 3,9 C 95 % 1008,2 hPa 0,0 l/m 0,0 km/h (0 Bft) SO 135 3,2 C 7,8 C 0,0 km/h (0 Bft)
05.11.2014 18:30 3,7 C 95 % 1008,2 hPa 0,0 l/m 0,0 km/h (0 Bft) SO 135 3,0 C 7,8 C 0,0 km/h (0 Bft)
05.11.2014 18:35 3,4 C 95 % 1008,4 hPa 0,0 l/m 0,0 km/h (0 Bft) SO 135 2,7 C 7,8 C 0,0 km/h (0 Bft)
05.11.2014 18:40 3,3 C 95 % 1008,4 hPa 0,0 l/m 0,0 km/h (0 Bft) SO 135 2,6 C 7,8 C 0,0 km/h (0 Bft)
05.11.2014 18:45 3,2 C 95 % 1008,4 hPa 0,0 l/m 0,0 km/h (0 Bft) SO 135 2,5 C 7,8 C 0,0 km/h (0 Bft)
05.11.2014 18:50 3,1 C 95 % 1008,4 hPa 0,0 l/m 0,0 km/h (0 Bft) SO 135 2,4 C 7,8 C 0,0 km/h (0 Bft)
05.11.2014 18:55 3,0 C 95 % 1008,8 hPa 0,0 l/m 0,0 km/h (0 Bft) SO 135 2,3 C 7,8 C 0,0 km/h (0 Bft)
05.11.2014 19:00 3,0 C 95 % 1008,8 hPa 0,0 l/m 0,0 km/h (0 Bft) SO 135 2,3 C 7,8 C 0,0 km/h (0 Bft)
05.11.2014 19:05 2,9 C 95 % 1008,8 hPa 0,0 l/m 0,0 km/h (0 Bft) SO 135 2,2 C 7,8 C 0,0 km/h (0 Bft)
05.11.2014 19:10 2,9 C 95 % 1008,8 hPa 0,0 l/m 0,0 km/h (0 Bft) SO 135 2,2 C 7,8 C 0,0 km/h (0 Bft)
05.11.2014 19:15 2,8 C 95 % 1008,8 hPa 0,0 l/m 0,0 km/h (0 Bft) SO 135 2,1 C 7,8 C 0,0 km/h (0 Bft)
05.11.2014 19:20 2,8 C 95 % 1008,8 hPa 0,0 l/m 0,0 km/h (0 Bft) SO 135 2,1 C 7,8 C 0,0 km/h (0 Bft)
05.11.2014 19:25 2,7 C 95 % 1008,8 hPa 0,0 l/m 0,0 km/h (0 Bft) SO 135 2,0 C 7,8 C 0,0 km/h (0 Bft)
05.11.2014 19:30 2,7 C 96 % 1008,8 hPa 0,0 l/m 0,0 km/h (0 Bft) SO 135 2,1 C 7,8 C 0,0 km/h (0 Bft)
05.11.2014 19:35 2,6 C 96 % 1008,8 hPa 0,0 l/m 0,0 km/h (0 Bft) SO 135 2,0 C 7,8 C 0,0 km/h (0 Bft)
05.11.2014 19:40 2,6 C 96 % 1008,8 hPa 0,0 l/m 0,0 km/h (0 Bft) SO 135 2,0 C 7,8 C 0,0 km/h (0 Bft)
05.11.2014 19:45 2,5 C 96 % 1008,8 hPa 0,0 l/m 0,0 km/h (0 Bft) SO 135 1,9 C 7,8 C 0,0 km/h (0 Bft)
05.11.2014 19:50 2,5 C 96 % 1008,8 hPa 0,0 l/m 0,0 km/h (0 Bft) SO 135 1,9 C 7,8 C 0,0 km/h (0 Bft)
05.11.2014 19:55 2,5 C 96 % 1008,8 hPa 0,0 l/m 0,0 km/h (0 Bft) SO 135 1,9 C 7,8 C 0,0 km/h (0 Bft)
05.11.2014 20:00 2,5 C 96 % 1009,2 hPa 0,0 l/m 0,0 km/h (0 Bft) SO 135 1,9 C 7,8 C 0,0 km/h (0 Bft)
05.11.2014 20:05 2,4 C 96 % 1009,2 hPa 0,0 l/m 0,0 km/h (0 Bft) SO 135 1,8 C 7,8 C 0,0 km/h (0 Bft)
05.11.2014 20:10 2,4 C 96 % 1009,2 hPa 0,0 l/m 0,0 km/h (0 Bft) SO 135 1,8 C 7,8 C 0,0 km/h (0 Bft)
05.11.2014 20:15 2,4 C 96 % 1009,2 hPa 0,0 l/m 0,0 km/h (0 Bft) SO 135 1,8 C 7,8 C 0,0 km/h (0 Bft)
05.11.2014 20:20 2,4 C 96 % 1009,7 hPa 0,0 l/m 0,0 km/h (0 Bft) SO 135 1,8 C 7,8 C 0,0 km/h (0 Bft)
05.11.2014 20:25 2,4 C 96 % 1009,7 hPa 0,0 l/m 0,0 km/h (0 Bft) SO 135 1,8 C 7,8 C 0,0 km/h (0 Bft)
05.11.2014 20:30 2,4 C 96 % 1009,7 hPa 0,0 l/m 0,0 km/h (0 Bft) SO 135 1,8 C 7,8 C 0,0 km/h (0 Bft)
05.11.2014 20:35 2,3 C 96 % 1009,7 hPa 0,0 l/m 0,0 km/h (0 Bft) SO 135 1,7 C 7,8 C 0,0 km/h (0 Bft)
05.11.2014 20:40 2,3 C 96 % 1009,7 hPa 0,0 l/m 0,0 km/h (0 Bft) SO 135 1,7 C 7,8 C 0,0 km/h (0 Bft)
05.11.2014 20:45 2,2 C 96 % 1009,7 hPa 0,0 l/m 0,0 km/h (0 Bft) SO 135 1,6 C 7,8 C 0,0 km/h (0 Bft)
05.11.2014 20:50 2,1 C 96 % 1009,7 hPa 0,0 l/m 0,0 km/h (0 Bft) SO 135 1,5 C 7,8 C 0,0 km/h (0 Bft)
05.11.2014 20:55 2,0 C 96 % 1009,7 hPa 0,0 l/m 0,0 km/h (0 Bft) SO 135 1,4 C 7,8 C 0,0 km/h (0 Bft)
05.11.2014 21:00 1,9 C 96 % 1009,8 hPa 0,0 l/m 0,0 km/h (0 Bft) SO 135 1,3 C 7,8 C 0,0 km/h (0 Bft)
05.11.2014 21:05 1,9 C 96 % 1009,8 hPa 0,0 l/m 0,0 km/h (0 Bft) SO 135 1,3 C 7,8 C 0,0 km/h (0 Bft)
05.11.2014 21:10 1,9 C 96 % 1009,8 hPa 0,0 l/m 0,0 km/h (0 Bft) SO 135 1,3 C 7,8 C 0,0 km/h (0 Bft)
05.11.2014 21:15 1,9 C 96 % 1009,8 hPa 0,0 l/m 0,0 km/h (0 Bft) SO 135 1,3 C 7,8 C 0,0 km/h (0 Bft)
05.11.2014 21:18 1,9 C 96 % 1010,0 hPa 0,0 l/m 0,0 km/h (0 Bft) SO 135 1,3 C 7,8 C 0,0 km/h (0 Bft)
05.11.2014 21:25 1,9 C 96 % 1010,0 hPa 0,0 l/m 0,0 km/h (0 Bft) SO 135 1,3 C 7,8 C 0,0 km/h (0 Bft)
05.11.2014 21:30 1,9 C 96 % 1010,0 hPa 0,0 l/m 0,0 km/h (0 Bft) SO 135 1,3 C 7,8 C 0,0 km/h (0 Bft)
05.11.2014 21:35 1,9 C 96 % 1009,9 hPa 0,0 l/m 0,0 km/h (0 Bft) SO 135 1,3 C 7,8 C 0,0 km/h (0 Bft)
05.11.2014 21:40 1,9 C 96 % 1009,9 hPa 0,0 l/m 0,0 km/h (0 Bft) SO 135 1,3 C 7,8 C 0,0 km/h (0 Bft)
05.11.2014 21:45 2,0 C 96 % 1009,9 hPa 0,0 l/m 0,0 km/h (0 Bft) SO 135 1,4 C 7,8 C 0,0 km/h (0 Bft)
05.11.2014 21:50 2,0 C 96 % 1009,9 hPa 0,0 l/m 0,0 km/h (0 Bft) SO 135 1,4 C 7,8 C 0,0 km/h (0 Bft)
05.11.2014 21:55 2,0 C 96 % 1009,8 hPa 0,0 l/m 0,0 km/h (0 Bft) SO 135 1,4 C 7,8 C 0,0 km/h (0 Bft)
05.11.2014 22:00 1,9 C 97 % 1009,8 hPa 0,0 l/m 0,0 km/h (0 Bft) SO 135 1,5 C 7,8 C 0,0 km/h (0 Bft)
05.11.2014 22:05 1,9 C 97 % 1009,8 hPa 0,0 l/m 0,0 km/h (0 Bft) SO 135 1,5 C 7,8 C 0,0 km/h (0 Bft)
05.11.2014 22:10 1,9 C 97 % 1009,8 hPa 0,0 l/m 0,0 km/h (0 Bft) SO 135 1,5 C 7,8 C 0,0 km/h (0 Bft)
05.11.2014 22:15 1,9 C 97 % 1009,8 hPa 0,0 l/m 0,0 km/h (0 Bft) SO 135 1,5 C 7,8 C 0,0 km/h (0 Bft)
05.11.2014 22:20 1,9 C 97 % 1009,6 hPa 0,0 l/m 0,0 km/h (0 Bft) SO 135 1,5 C 7,8 C 0,0 km/h (0 Bft)
05.11.2014 22:25 1,9 C 97 % 1009,6 hPa 0,0 l/m 0,0 km/h (0 Bft) SO 135 1,5 C 7,8 C 0,0 km/h (0 Bft)
05.11.2014 22:30 1,9 C 97 % 1009,6 hPa 0,0 l/m 0,0 km/h (0 Bft) SO 135 1,5 C 7,8 C 0,0 km/h (0 Bft)
05.11.2014 22:35 1,9 C 97 % 1009,6 hPa 0,0 l/m 0,0 km/h (0 Bft) SO 135 1,5 C 7,8 C 0,0 km/h (0 Bft)
05.11.2014 22:40 1,9 C 97 % 1009,9 hPa 0,0 l/m 0,0 km/h (0 Bft) SO 135 1,5 C 7,8 C 0,0 km/h (0 Bft)
05.11.2014 22:45 2,0 C 96 % 1009,9 hPa 0,0 l/m 0,0 km/h (0 Bft) SO 135 1,4 C 7,8 C 0,0 km/h (0 Bft)
05.11.2014 22:50 2,0 C 96 % 1009,9 hPa 0,0 l/m 0,0 km/h (0 Bft) SO 135 1,4 C 7,8 C 0,0 km/h (0 Bft)
05.11.2014 22:55 1,9 C 97 % 1009,9 hPa 0,0 l/m 0,0 km/h (0 Bft) SO 135 1,5 C 7,8 C 0,0 km/h (0 Bft)
05.11.2014 23:00 2,0 C 97 % 1009,9 hPa 0,0 l/m 0,0 km/h (0 Bft) SO 135 1,6 C 7,8 C 0,0 km/h (0 Bft)
05.11.2014 23:05 2,0 C 97 % 1009,9 hPa 0,0 l/m 0,0 km/h (0 Bft) SO 135 1,6 C 7,8 C 0,0 km/h (0 Bft)
05.11.2014 23:10 2,0 C 97 % 1009,9 hPa 0,0 l/m 0,0 km/h (0 Bft) SO 135 1,6 C 7,8 C 0,0 km/h (0 Bft)
05.11.2014 23:15 2,0 C 97 % 1009,9 hPa 0,0 l/m 0,0 km/h (0 Bft) SO 135 1,6 C 7,8 C 0,0 km/h (0 Bft)
05.11.2014 23:20 2,0 C 97 % 1010,4 hPa 0,0 l/m 0,0 km/h (0 Bft) SO 135 1,6 C 7,8 C 0,0 km/h (0 Bft)
05.11.2014 23:25 2,0 C 97 % 1010,4 hPa 0,0 l/m 0,0 km/h (0 Bft) SO 135 1,6 C 7,8 C 0,0 km/h (0 Bft)
05.11.2014 23:30 2,0 C 97 % 1010,4 hPa 0,0 l/m 0,0 km/h (0 Bft) SO 135 1,6 C 7,8 C 0,0 km/h (0 Bft)
05.11.2014 23:35 2,0 C 97 % 1010,4 hPa 0,0 l/m 0,0 km/h (0 Bft) SO 135 1,6 C 7,8 C 0,0 km/h (0 Bft)
05.11.2014 23:40 1,9 C 97 % 1010,5 hPa 0,0 l/m 0,0 km/h (0 Bft) SO 135 1,5 C 7,8 C 0,0 km/h (0 Bft)
05.11.2014 23:45 1,7 C 97 % 1010,5 hPa 0,0 l/m 0,0 km/h (0 Bft) SO 135 1,3 C 7,8 C 0,0 km/h (0 Bft)
05.11.2014 23:50 1,6 C 97 % 1010,5 hPa 0,0 l/m 0,0 km/h (0 Bft) SO 135 1,2 C 7,8 C 0,0 km/h (0 Bft)
05.11.2014 23:55 1,4 C 97 % 1010,5 hPa 0,0 l/m 0,0 km/h (0 Bft) SO 135 1,0 C 7,8 C 0,0 km/h (0 Bft)
_ Min-Zeit 23:55 00:55 01:15 - 23:55 - - 01:15 23:55 23:55
Minimum _ 1,4 C 65 % 998,9 hPa - 0,0 km/h (0 Bft) - - 0,2 C 7,8 C 0,0 km/h (0 Bft)
_ Max-Zeit 00:50 23:55 23:55 23:55 23:55 - - 11:55 23:55 23:55
Maximum _ 8,6 C 97 % 1010,5 hPa 0,0 l/m 0,0 km/h
SO (0 Bft)
- - 6,3 C 7,8 C 0,0 km/h
SO (0 Bft)
Durchschnitt _ 5,5 C 88 % 1005,0 hPa #0,0 l/m 0,0 km/h (0 Bft) - - - 3,6 C 7,8 C 0,0 km/h (0 Bft)